Location: Street
(51.1247°N, 2.7429°W)
Time: 06:16:38
(UTC+01:00)

NANOSAT C BR1 - Pass Details

Date: 05 April 2023
Orbit: 573 x 587 km, 98.0° (Epoch: 29 May)

Event Time Altitude Azimuth Distance (km) Brightness Sun altitude
Rises 02:53:05 0° 27° (NNE) 2,807 ? -29.1°
Reaches altitude 10° 02:55:52 10° 47° (NE) 1,899 ? -28.9°
Enters shadow 02:58:53 18° 95° (E) 1,460 ? -28.7°
Exits shadow 03:31:48 -61° 189° (S) 11,789 ? -25.7°
Maximum altitude 04:34:21 55° 289° (WNW) 702 ? -18.6°
